Regional Weather Roundup
Issued by NWS

Home | Current Version | Previous Version | Text Only | Print | Product List | Glossary On
Versions: 1 2 3 4 5 6 7 8 9 10 11 12 13 14 15 16 17 18 19 20 21 22 23 24 25 26 27 28 29 30 31 32 33 34 35 36 37 38 39 40 41 42 43 44 45 46 47 48 49 50
000
ASUS45 KCYS 070910
RWRWY

WYOMING REGIONAL WEATHER ROUNDUP
NATIONAL WEATHER SERVICE CHEYENNE WY
300 AM MDT THU MAY 07 2015

NOTE:  "FAIR" INDICATES FEW OR NO CLOUDS BELOW 12,000 FEET
WITH NO SIGNIFICANT WEATHER AND/OR OBSTRUCTIONS TO VISIBILITY.

WYZ001-071000-
YELLOWSTONE NATIONAL PARK

CITY           SKY/WX    TMP DP  RH WIND       PRES   REMARKS
LK YELLOWSTONE   N/A     32  30  92 VRB3      29.91R
W YELLOWSTONE  NOT AVBL

$$
WYZ002>013-054>058-071-098>099-071000-
NORTHERN WYOMING

CITY           SKY/WX    TMP DP  RH WIND       PRES   REMARKS
JACKSON        CLOUDY    34  34 100 N8        29.85S WCI  27
CODY           CLOUDY    41  32  70 N10G16    29.94S
GREYBULL       CLOUDY    48  43  82 CALM      29.88S
WORLAND        CLOUDY    47  38  71 NW5       29.87F
SHERIDAN       CLOUDY    46  38  73 NW10      29.95R
BUFFALO        CLOUDY    44  35  70 N21G28    29.92F
GILLETTE       CLOUDY    44  39  82 NW10      29.89S
HULETT         CLOUDY    45  39  81 NW8       29.88S
NEWCASTLE      DRIZZLE   43  43 100 NW17      29.82S

$$
WYZ014>020-022>026-101>103-071000-
CENTRAL WYOMING

CITY           SKY/WX    TMP DP  RH WIND       PRES   REMARKS
BIG PINEY      LGT RAIN  37  35  92 S13       29.86F WCI  29
PINEDALE       LGT RAIN  37  37 100 S12       29.86S WCI  30
DUBOIS         LGT RAIN  32  32 100 SE16G22   29.88S WCI  21
LANDER         LGT RAIN  40  38  93 E9        29.90F WCI  34
RIVERTON       LGT RAIN  41  38  89 E8        29.92S
CASPER         LGT RAIN  39  37  92 E5        29.92S FOG
DOUGLAS        CLOUDY    41  41 100 W12       29.89F FOG

$$
WYZ021-027>030-104>119-071000-
SOUTHERN WYOMING

CITY           SKY/WX    TMP DP  RH WIND       PRES   REMARKS
EVANSTON       LGT RAIN  40  39  97 SW10      29.83S WCI  33
KEMMERER       CLOUDY    39  37  93 E3        29.83F
FORT BRIDGER   CLOUDY    43  43 100 CALM      29.85F
ROCK SPRINGS   CLOUDY    40  39  97 E9        29.85R WCI  34
DIXON          PTSUNNY   43  40  88 CALM      29.89S
RAWLINS        CLOUDY    38  38 100 NE6       29.89F WCI  33
SARATOGA       CLOUDY    39  37  93 SW3       29.88F
LARAMIE        CLOUDY    38  37  97 N8        29.87F WCI  32
CHEYENNE       CLOUDY    40  37  89 N12G21    29.87R WCI  33
TORRINGTON     CLOUDY    48  40  73 NW15G23   29.82S
PINE BLUFFS    CLOUDY    43  41  93 N15       29.86R

$$


USA.gov is the U.S. government's official web portal to all federal, state and local government web resources and services.